timestamp,wind_dir_avg,wind_spd_avg,wind_spd_max_dir,wind_spd_gust,battery_voltage,lat,long
2022-08-31 00:04:00+00:00,227.0,4.74,239.0,6.73,12.49,47.59359,-54.27349
2022-08-31 00:14:01+00:00,230.0,4.87,238.0,6.24,12.41,47.59359,-54.27349
2022-08-31 00:24:01+00:00,226.0,5.29,233.0,6.61,12.41,47.59359,-54.27349
2022-08-31 00:34:01+00:00,223.0,5.66,235.0,6.82,12.41,47.59359,-54.27349
2022-08-31 00:44:01+00:00,232.0,5.95,234.0,7.33,12.41,47.59359,-54.27349
2022-08-31 00:54:01+00:00,225.0,4.19,235.0,5.67,12.41,47.59359,-54.27349
2022-08-31 01:04:01+00:00,240.0,3.53,244.0,4.92,12.41,47.59359,-54.27349
2022-08-31 01:14:01+00:00,229.0,4.76,241.0,6.57,12.41,47.59359,-54.27349
2022-08-31 01:24:01+00:00,231.0,4.21,243.0,6.14,12.41,47.59359,-54.27349
2022-08-31 01:34:01+00:00,186.0,3.72,214.0,4.57,12.41,47.59359,-54.27349
2022-08-31 01:44:01+00:00,203.0,5.41,217.0,6.55,12.41,47.59359,-54.27349
2022-08-31 01:54:01+00:00,214.0,5.91,224.0,6.94,12.41,47.59359,-54.27349
2022-08-31 02:04:01+00:00,209.0,6.45,221.0,7.36,12.41,47.59359,-54.27349
2022-08-31 02:14:00+00:00,227.0,6.36,232.0,7.36,12.41,47.59359,-54.27349
2022-08-31 02:24:00+00:00,221.0,5.32,222.0,5.85,12.41,47.59359,-54.27349
2022-08-31 02:34:00+00:00,226.0,6.95,230.0,7.88,12.41,47.59359,-54.27349
2022-08-31 02:44:00+00:00,218.0,5.96,219.0,6.41,12.41,47.59359,-54.27349
2022-08-31 02:54:00+00:00,226.0,5.92,236.0,7.32,12.41,47.59359,-54.27349
2022-08-31 03:04:00+00:00,225.0,6.25,229.0,7.43,12.41,47.59359,-54.27349
2022-08-31 03:14:00+00:00,222.0,7.47,230.0,8.36,12.41,47.59359,-54.27349
2022-08-31 03:24:00+00:00,220.0,5.75,223.0,6.17,12.41,47.59359,-54.27349
2022-08-31 03:34:00+00:00,225.0,5.66,220.0,6.45,12.41,47.59359,-54.27349
2022-08-31 03:44:00+00:00,224.0,4.63,233.0,6.32,12.41,47.59359,-54.27349
2022-08-31 03:54:00+00:00,222.0,4.83,238.0,6.89,12.41,47.59359,-54.27349
2022-08-31 04:04:00+00:00,227.0,4.25,240.0,6.03,12.41,47.59359,-54.27349
2022-08-31 04:14:01+00:00,229.0,4.26,233.0,4.78,12.33,47.59359,-54.27349
2022-08-31 04:24:01+00:00,221.0,7.19,214.0,8.93,12.33,47.59359,-54.27349
2022-08-31 04:34:01+00:00,216.0,6.48,223.0,7.29,12.33,47.59359,-54.27349
2022-08-31 04:44:01+00:00,219.0,7.11,226.0,8.41,12.33,47.59359,-54.27349
2022-08-31 04:54:01+00:00,222.0,7.04,227.0,8.1,12.33,47.59359,-54.27349
2022-08-31 05:04:01+00:00,215.0,6.11,215.0,6.93,12.33,47.59359,-54.27349
2022-08-31 05:14:00+00:00,219.0,5.59,229.0,6.76,12.33,47.59359,-54.27349
2022-08-31 05:24:00+00:00,214.0,6.87,217.0,7.41,12.33,47.59359,-54.27349
2022-08-31 05:34:00+00:00,217.0,6.67,221.0,7.69,12.33,47.59359,-54.27349
2022-08-31 05:44:00+00:00,218.0,6.73,217.0,7.79,12.33,47.59359,-54.27349
2022-08-31 05:54:00+00:00,218.0,5.83,225.0,6.68,12.33,47.59359,-54.27349
2022-08-31 06:04:00+00:00,222.0,5.06,229.0,5.63,12.33,47.59359,-54.27349
2022-08-31 06:14:00+00:00,227.0,4.31,242.0,6.8,12.25,47.59359,-54.27349
2022-08-31 06:24:00+00:00,223.0,4.35,236.0,5.82,12.25,47.59359,-54.27349
2022-08-31 06:34:00+00:00,232.0,4.05,242.0,4.96,12.25,47.59359,-54.27349
2022-08-31 06:44:00+00:00,232.0,3.67,244.0,4.77,12.25,47.59359,-54.27349
2022-08-31 06:54:00+00:00,223.0,2.75,247.0,4.37,12.25,47.59359,-54.27349
2022-08-31 07:04:00+00:00,226.0,2.56,237.0,3.38,12.25,47.59359,-54.27349
2022-08-31 07:14:00+00:00,218.0,3.25,231.0,4.2,12.33,47.59359,-54.27349
2022-08-31 07:24:00+00:00,230.0,5.72,239.0,6.88,12.33,47.59359,-54.27349
2022-08-31 07:34:00+00:00,226.0,4.5,240.0,6.52,12.33,47.59359,-54.27349
2022-08-31 07:44:00+00:00,226.0,5.31,235.0,6.96,12.33,47.59359,-54.27349
2022-08-31 07:54:00+00:00,227.0,5.67,233.0,6.54,12.33,47.59359,-54.27349
2022-08-31 08:04:00+00:00,225.0,5.56,235.0,6.84,12.33,47.59359,-54.27349
2022-08-31 08:14:01+00:00,224.0,4.85,225.0,5.53,12.25,47.59359,-54.27349
2022-08-31 08:24:01+00:00,231.0,4.62,232.0,5.14,12.25,47.59359,-54.27349
2022-08-31 08:34:01+00:00,230.0,4.21,231.0,4.68,12.25,47.59359,-54.27349
2022-08-31 08:44:01+00:00,232.0,4.27,233.0,5.03,12.25,47.59359,-54.27349
2022-08-31 08:54:01+00:00,226.0,4.16,229.0,4.63,12.25,47.59359,-54.27349
2022-08-31 09:04:01+00:00,233.0,4.59,235.0,5.23,12.25,47.59359,-54.27349
2022-08-31 09:14:00+00:00,242.0,4.11,244.0,4.83,12.25,47.59359,-54.27349
2022-08-31 09:24:00+00:00,248.0,3.3,249.0,3.58,12.25,47.59359,-54.27349
2022-08-31 09:34:00+00:00,243.0,3.24,248.0,4.37,12.25,47.59359,-54.27349
2022-08-31 09:44:00+00:00,247.0,3.9,255.0,5.28,12.25,47.59359,-54.27349
2022-08-31 09:54:00+00:00,229.0,4.08,242.0,6.47,12.25,47.59359,-54.27349
2022-08-31 10:04:00+00:00,228.0,4.48,236.0,6.5,12.25,47.59359,-54.27349
2022-08-31 10:14:00+00:00,235.0,3.83,238.0,4.16,12.33,47.59359,-54.27349
2022-08-31 10:24:00+00:00,216.0,3.92,224.0,4.73,12.33,47.59359,-54.27349
2022-08-31 10:34:00+00:00,197.0,4.7,198.0,5.07,12.33,47.59359,-54.27349
2022-08-31 10:44:00+00:00,207.0,3.85,220.0,5.05,12.33,47.59359,-54.27349
2022-08-31 10:54:00+00:00,199.0,3.94,217.0,4.58,12.33,47.59359,-54.27349
2022-08-31 11:04:00+00:00,206.0,4.54,217.0,5.08,12.33,47.59359,-54.27349
2022-08-31 11:14:00+00:00,202.0,3.82,217.0,4.43,12.81,47.59359,-54.27349
2022-08-31 11:24:00+00:00,200.0,2.74,210.0,3.16,12.81,47.59359,-54.27349
2022-08-31 11:34:00+00:00,199.0,2.41,201.0,2.63,12.81,47.59359,-54.27349
2022-08-31 11:44:00+00:00,213.0,3.36,226.0,4.42,12.81,47.59359,-54.27349
2022-08-31 11:54:00+00:00,218.0,2.59,215.0,2.98,12.81,47.59359,-54.27349
2022-08-31 12:04:00+00:00,212.0,2.21,212.0,2.6,12.81,47.59359,-54.27349
2022-08-31 12:14:01+00:00,210.0,1.95,209.0,2.2,13.68,47.59359,-54.27349
2022-08-31 12:24:01+00:00,197.0,2.61,199.0,2.96,13.68,47.59359,-54.27349
2022-08-31 12:34:01+00:00,186.0,3.39,187.0,3.66,13.68,47.59359,-54.27349
2022-08-31 12:44:01+00:00,183.0,3.22,184.0,3.5,13.68,47.59359,-54.27349
2022-08-31 12:54:01+00:00,187.0,3.58,188.0,3.81,13.68,47.59359,-54.27349
2022-08-31 13:04:01+00:00,202.0,5.7,201.0,6.31,13.68,47.59359,-54.27349
2022-08-31 13:14:01+00:00,203.0,5.53,201.0,6.01,14.0,47.59359,-54.27349
2022-08-31 13:24:01+00:00,189.0,4.69,190.0,5.08,14.0,47.59359,-54.27349
2022-08-31 13:34:01+00:00,197.0,4.31,197.0,4.58,14.0,47.59359,-54.27349
2022-08-31 13:44:01+00:00,203.0,4.19,203.0,4.61,14.0,47.59359,-54.27349
2022-08-31 13:54:01+00:00,204.0,4.03,207.0,4.61,14.0,47.59359,-54.27349
2022-08-31 14:04:01+00:00,199.0,4.39,201.0,4.84,14.0,47.59359,-54.27349
2022-08-31 14:14:00+00:00,194.0,4.31,192.0,4.81,13.68,47.59359,-54.27349
2022-08-31 14:24:00+00:00,200.0,4.75,202.0,5.06,13.68,47.59359,-54.27349
2022-08-31 14:34:00+00:00,198.0,4.65,200.0,5.19,13.68,47.59359,-54.27349
2022-08-31 14:44:00+00:00,206.0,4.28,206.0,5.02,13.68,47.59359,-54.27349
2022-08-31 14:54:00+00:00,199.0,5.48,202.0,5.91,13.68,47.59359,-54.27349
2022-08-31 15:04:00+00:00,203.0,5.84,203.0,6.54,13.68,47.59359,-54.27349
2022-08-31 15:14:00+00:00,203.0,6.35,202.0,7.22,14.32,47.59359,-54.27349
2022-08-31 15:24:00+00:00,198.0,5.8,198.0,6.46,14.32,47.59359,-54.27349
2022-08-31 15:34:00+00:00,201.0,6.6,206.0,7.33,14.32,47.59359,-54.27349
2022-08-31 15:44:00+00:00,202.0,7.08,202.0,8.11,14.32,47.59359,-54.27349
2022-08-31 15:54:00+00:00,203.0,7.34,204.0,8.03,14.32,47.59359,-54.27349
2022-08-31 16:04:00+00:00,203.0,6.83,206.0,7.37,14.32,47.59359,-54.27349
2022-08-31 16:14:00+00:00,199.0,7.39,200.0,8.29,14.32,47.59359,-54.27349
2022-08-31 16:24:00+00:00,207.0,7.32,208.0,8.57,14.32,47.59359,-54.27349
2022-08-31 16:34:00+00:00,202.0,6.57,202.0,7.51,14.32,47.59359,-54.27349
2022-08-31 16:44:00+00:00,204.0,7.35,205.0,7.97,14.32,47.59359,-54.27349
2022-08-31 16:54:00+00:00,199.0,7.44,200.0,8.14,14.32,47.59359,-54.27349
2022-08-31 17:04:00+00:00,204.0,8.34,203.0,9.0,14.32,47.59359,-54.27349
2022-08-31 17:14:01+00:00,205.0,8.43,205.0,8.89,14.32,47.59359,-54.27349
2022-08-31 17:24:01+00:00,204.0,8.12,206.0,8.76,14.32,47.59359,-54.27349
2022-08-31 17:34:01+00:00,209.0,7.79,209.0,8.54,14.32,47.59359,-54.27349
2022-08-31 17:44:01+00:00,213.0,6.56,218.0,7.07,14.32,47.59359,-54.27349
2022-08-31 17:54:01+00:00,217.0,6.49,216.0,7.72,14.32,47.59359,-54.27349
2022-08-31 18:04:01+00:00,214.0,6.59,206.0,7.7,14.32,47.59359,-54.27349
2022-08-31 18:14:00+00:00,219.0,6.02,226.0,7.02,14.0,47.59359,-54.27349
2022-08-31 18:24:00+00:00,223.0,6.81,224.0,7.33,14.0,47.59359,-54.27349
2022-08-31 18:34:00+00:00,222.0,6.32,220.0,7.22,14.0,47.59359,-54.27349
2022-08-31 18:44:00+00:00,229.0,7.33,232.0,8.09,14.0,47.59359,-54.27349
2022-08-31 18:54:00+00:00,220.0,7.31,220.0,7.96,14.0,47.59359,-54.27349
2022-08-31 19:04:00+00:00,224.0,6.76,224.0,7.95,14.0,47.59359,-54.27349
2022-08-31 19:14:00+00:00,227.0,6.31,226.0,7.36,13.76,47.59359,-54.27349
2022-08-31 19:24:00+00:00,224.0,7.34,224.0,7.98,13.76,47.59359,-54.27349
2022-08-31 19:34:00+00:00,222.0,6.88,222.0,7.57,13.76,47.59359,-54.27349
2022-08-31 19:44:00+00:00,223.0,6.77,225.0,7.41,13.76,47.59359,-54.27349
2022-08-31 19:54:00+00:00,226.0,6.48,226.0,7.19,13.76,47.59359,-54.27349
2022-08-31 20:04:00+00:00,228.0,6.15,228.0,6.98,13.76,47.59359,-54.27349
2022-08-31 20:14:00+00:00,230.0,6.61,230.0,8.21,13.6,47.59359,-54.27349
2022-08-31 20:24:00+00:00,223.0,6.17,218.0,7.23,13.6,47.59359,-54.27349
2022-08-31 20:34:00+00:00,226.0,6.53,228.0,7.37,13.6,47.59359,-54.27349
2022-08-31 20:44:00+00:00,228.0,5.77,230.0,6.38,13.6,47.59359,-54.27349
2022-08-31 20:54:00+00:00,223.0,4.27,227.0,4.87,13.6,47.59359,-54.27349
2022-08-31 21:04:00+00:00,229.0,4.53,241.0,6.26,13.6,47.59359,-54.27349
2022-08-31 21:14:00+00:00,226.0,5.84,232.0,7.02,13.21,47.59359,-54.27349
2022-08-31 21:24:00+00:00,220.0,5.85,228.0,6.67,13.21,47.59359,-54.27349
2022-08-31 21:34:00+00:00,227.0,6.3,232.0,7.22,13.21,47.59359,-54.27349
2022-08-31 21:44:00+00:00,228.0,6.56,233.0,7.25,13.21,47.59359,-54.27349
2022-08-31 21:54:00+00:00,225.0,5.62,236.0,6.98,13.21,47.59359,-54.27349
2022-08-31 22:04:00+00:00,230.0,5.84,239.0,7.1,13.21,47.59359,-54.27349
2022-08-31 22:14:00+00:00,226.0,5.75,232.0,7.35,12.57,47.59359,-54.27349
2022-08-31 22:24:00+00:00,225.0,5.36,235.0,6.6,12.57,47.59359,-54.27349
2022-08-31 22:34:00+00:00,227.0,4.72,235.0,5.92,12.57,47.59359,-54.27349
2022-08-31 22:44:00+00:00,226.0,4.78,236.0,6.11,12.57,47.59359,-54.27349
2022-08-31 22:54:00+00:00,228.0,4.85,234.0,5.87,12.57,47.59359,-54.27349
2022-08-31 23:04:00+00:00,235.0,4.93,242.0,5.78,12.57,47.59359,-54.27349
2022-08-31 23:14:00+00:00,238.0,4.2,247.0,6.3,12.41,47.59359,-54.27349
2022-08-31 23:24:00+00:00,225.0,2.77,242.0,4.22,12.41,47.59359,-54.27349
2022-08-31 23:34:00+00:00,208.0,1.83,211.0,2.0,12.41,47.59359,-54.27349
2022-08-31 23:44:00+00:00,210.0,1.19,218.0,1.39,12.41,47.59359,-54.27349
2022-08-31 23:54:00+00:00,204.0,0.91,212.0,1.02,12.41,47.59359,-54.27349
